Regional Weather Roundup
Issued by NWS Columbia, SC

Home | Current Version | Previous Version | Text Only | Print | Product List | Glossary On
Versions: 1 2 3 4 5 6 7 8 9 10 11 12 13 14 15 16 17 18 19 20 21 22 23 24 25 26 27 28 29 30 31 32 33 34 35 36 37 38 39 40 41 42 43 44 45 46 47 48 49 50
000
ASUS42 KCAE 180410
RWRCAE
REGIONAL WEATHER ROUNDUP
NATIONAL WEATHER SERVICE COLUMBIA SC
1100 PM EST WED JAN 17 2018

NOTE: "FAIR" INDICATES FEW OR NO CLOUDS BELOW 12,000 FEET WITH NO
SIGNIFICANT WEATHER AND/OR OBSTRUCTIONS TO VISIBILITY.

NOT ALL STATIONS ARE QUALITY CONTROLLED BY THE NATIONAL
WEATHER SERVICE. USE DATA WITH CAUTION...ESPECIALLY
DEWPOINT OBSERVATIONS.

SCZ001>056-GAZ040-063>065-077-180500-
...UPSTATE SOUTH CAROLINA...

CITY           SKY/WX    TMP DP  RH WIND       PRES   REMARKS
ANDERSON       FAIR      20  13  74 N3        30.35S
LIBERTY        FAIR      17  11  79 NW5       30.32S WCI   9
SPARTANBURG    FAIR      19   5  53 CALM      30.33S
CLEMSON        FAIR      21  10  62 NW6       30.35S WCI  13
GREENVILLE     FAIR      22   5  48 N18       30.32F WCI   7
GREENWOOD      FAIR      18  12  77 NW3       30.37R
GREER          FAIR      18   6  59 N3        30.33S
ROCK HILL      FAIR      20  13  74 N8        30.32S WCI  10
CHESTER        FAIR      23  19  86 NW3       30.34R
LAURENS        FAIR      19  14  79 NW5       30.35R WCI  13


...CENTRAL SOUTH CAROLINA...

CITY           SKY/WX    TMP DP  RH WIND       PRES   REMARKS
COLUMBIA APT   CLOUDY    30  21  69 NW7       30.34R WCI  23
MCENTIRE ANGB  CLOUDY    28  19  69 NW16      30.32R WCI  16
ORANGEBURG     CLOUDY    31  23  72 N8        30.32R WCI  23
SUMTER SHAW    CLOUDY    28  19  67 N13G22    30.29R WCI  18
NEWBERRY       CLOUDY    23  14  68 NW8       30.38S WCI  14
AIKEN          FAIR      27  18  69 NW7       30.37R WCI  19
BARNWELL         N/A     30  25  80 NW9       30.34S WCI  22
MANNING        CLOUDY    30  23  74 MISG      30.30R
CAMDEN         CLOUDY    27  18  69 NW9       30.33R WCI  17
LANCASTER      MOCLDY    25  19  80 CALM      30.33S
WINNSBORO      CLOUDY    27  21  80 NW10G16   30.32R WCI  17


...EASTERN AND COASTAL SOUTH CAROLINA...

CITY           SKY/WX    TMP DP  RH WIND       PRES   REMARKS
MYRTLE BEACH   CLOUDY    32  29  88 NW17G23   30.22R WCI  21
N MYRTLE BCH   CLOUDY    32  27  81 N13G24    30.20R WCI  22
CONWAY         CLOUDY    32  28  86 NW8       30.24R WCI  25
MARION         FLURRIES  30  28  93 NW10G20   30.27R WCI  21
HARTSVILLE     CLOUDY    25  19  80 NW7       30.29S WCI  17
FLORENCE       CLOUDY    28  23  81 N15G24    30.28R WCI  16
DARLINGTON     FLURRIES  26  22  84 N12G22    30.30R WCI  16
CHARLESTON APT CLOUDY    34  24  67 N24G30    30.27R WCI  21
MOUNT PLEASANT MOCLDY    34  28  80 NW17G25   30.26R WCI  23
WALTERBORO     CLOUDY    34  28  80 NW10G16   30.31S WCI  26
BEAUFORT       CLOUDY    34  19  54 NW12      30.32  WCI  25
HILTON HEAD    MOCLDY    32  16  51 NW9G17    30.32S WCI  24


...EASTERN GEORGIA...

CITY           SKY/WX    TMP DP  RH WIND       PRES   REMARKS
AUGUSTA BUSH F MOCLDY    30  14  51 NW9       30.36R WCI  22
AUGUSTA DANIEL FAIR      30  15  53 NW10      30.35R WCI  21
THOMSON        MOCLDY    26   8  46 N5        30.41S WCI  20
WASHINGTON     FAIR      25   9  50 NW3       30.36S
CLAXTON        FAIR      29  12  49 W7        30.37S WCI  22
SYLVANIA       FAIR      30  16  56 NW8       30.35S WCI  22
STATESBORO     MOCLDY    29   9  42 NW9       30.36R WCI  21
SAVANNAH       CLOUDY    31  13  47 W10       30.35R WCI  22


...SOUTHERN NORTH CAROLINA...

CITY           SKY/WX    TMP DP  RH WIND       PRES   REMARKS
CHARLOTTE      FAIR      19  11  70 N7        30.32R WCI  10
MONROE         CLOUDY    23  16  74 NW7       30.29S WCI  15
WADESBORO      CLOUDY    24  19  81 NW8       30.31S WCI  15
ROCKINGHAM     LGT RAIN  25  23  91 NW10G18   30.28S WCI  15
RUTHERFORDTON  FAIR      19   3  51 NW6       30.32S WCI  10
ASHEVILLE      FAIR      11   4  73 N22G29    30.29F WCI  -8

$$



USA.gov is the U.S. government's official web portal to all federal, state and local government web resources and services.